EW3591 Weather Reports


Display with metric or nautical units.
time (UTC)temp
F
wind
direction
speed
MPH
gust
MPH
rain 1hr
in
rain 24hr
in
rain mn
in
humidity
%
barometer
mb
20260509105134 48 210 3.0 9.0 0.00 0.02 0.00 96 1005.9
20260509104934 48 221 3.0 9.0 0.00 0.02 0.00 96 1005.9
20260509104734 48 225 4.0 9.0 0.00 0.02 0.00 96 1005.8
20260509104533 48 218 4.0 9.0 0.00 0.02 0.00 96 1005.9
20260509104333 48 222 4.0 9.0 0.00 0.02 0.00 96 1005.9
20260509104133 48 215 3.0 7.0 0.00 0.02 0.00 96 1005.9
20260509103932 48 218 2.0 7.0 0.00 0.02 0.00 96 1005.9
20260509103732 48 231 2.0 7.0 0.00 0.02 0.00 96 1005.9
20260509103532 48 225 3.0 7.0 0.00 0.02 0.00 96 1005.9
20260509103331 48 212 3.0 8.0 0.00 0.02 0.00 96 1005.9
20260509103131 48 222 3.0 8.0 0.00 0.02 0.00 96 1006.0
20260509102931 48 213 4.0 8.0 0.00 0.02 0.00 96 1006.0
20260509102731 48 217 4.0 8.0 0.00 0.02 0.00 96 1005.9
20260509102530 48 216 4.0 8.0 0.00 0.02 0.00 96 1006.0
20260509102330 48 217 3.0 8.0 0.00 0.02 0.00 96 1006.1
20260509102130 48 215 2.0 9.0 0.00 0.02 0.00 95 1006.1
20260509101929 48 224 3.0 9.0 0.00 0.02 0.00 95 1006.1
20260509101729 48 210 4.0 9.0 0.00 0.02 0.00 95 1006.2
20260509101529 48 211 4.0 9.0 0.00 0.02 0.00 95 1006.2
20260509101328 48 206 4.0 9.0 0.00 0.02 0.00 95 1006.1
20260509101128 48 212 3.0 9.0 0.00 0.02 0.00 95 1006.1
20260509100928 48 220 3.0 6.0 0.00 0.02 0.00 95 1006.1
20260509100728 48 215 3.0 9.0 0.00 0.02 0.00 95 1006.2
20260509100527 48 209 2.0 9.0 0.00 0.02 0.00 95 1006.2
20260509100327 48 235 2.0 9.0 0.00 0.02 0.00 95 1006.1
20260509100127 48 228 4.0 9.0 0.00 0.02 0.00 95 1006.1
20260509095926 48 222 4.0 9.0 0.00 0.04 0.00 95 1006.1
20260509095726 48 218 3.0 8.0 0.00 0.04 0.00 94 1006.2
20260509095526 48 211 4.0 9.0 0.00 0.04 0.00 94 1006.2
20260509095325 48 215 4.0 9.0 0.00 0.04 0.00 94 1006.3
20260509095125 48 209 5.0 9.0 0.00 0.04 0.00 94 1006.3
20260509094925 48 210 5.0 9.0 0.00 0.04 0.00 94 1006.3
20260509094725 48 207 4.0 9.0 0.00 0.04 0.00 94 1006.3
20260509094524 49 206 4.0 10.0 0.00 0.04 0.00 94 1006.3
20260509094324 48 210 3.0 15.0 0.00 0.04 0.00 94 1006.3
20260509094124 48 218 4.0 15.0 0.00 0.04 0.00 94 1006.3
20260509093923 48 222 5.0 15.0 0.00 0.04 0.00 94 1006.3
20260509093723 48 219 4.0 15.0 0.00 0.04 0.00 94 1006.3
20260509093523 48 213 5.0 15.0 0.00 0.04 0.00 94 1006.2
20260509093322 48 214 4.0 15.0 0.00 0.04 0.00 94 1006.2
20260509093122 48 203 5.0 11.0 0.00 0.04 0.00 94 1006.3
20260509092922 48 208 4.0 10.0 0.00 0.04 0.00 94 1006.2
20260509092722 48 206 4.0 10.0 0.00 0.04 0.00 94 1006.3
20260509092521 48 205 5.0 10.0 0.00 0.04 0.00 94 1006.2
20260509092321 48 212 5.0 11.0 0.00 0.04 0.00 94 1006.3
20260509092121 48 227 4.0 11.0 0.00 0.04 0.00 94 1006.2
20260509091920 48 219 3.0 11.0 0.00 0.04 0.00 94 1006.3
20260509091720 48 218 5.0 11.0 0.00 0.04 0.00 93 1006.2
20260509091520 48 217 5.0 11.0 0.00 0.04 0.00 93 1006.2
20260509091319 48 217 4.0 10.0 0.00 0.04 0.00 93 1006.2
20260509091119 48 213 5.0 10.0 0.00 0.04 0.00 93 1006.3
20260509090919 48 227 4.0 12.0 0.00 0.04 0.00 93 1006.2
20260509090719 48 218 4.0 13.0 0.00 0.04 0.00 93 1006.2
20260509090518 48 210 5.0 13.0 0.00 0.04 0.00 93 1006.3
20260509090318 48 204 6.0 13.0 0.00 0.04 0.00 93 1006.4
20260509090118 48 213 6.0 13.0 0.00 0.04 0.00 93 1006.4
20260509085917 48 222 5.0 12.0 0.00 0.05 0.00 92 1006.4
20260509085717 48 221 5.0 11.0 0.00 0.05 0.00 92 1006.3
20260509085517 48 203 5.0 11.0 0.00 0.05 0.00 92 1006.3
20260509085316 48 215 6.0 11.0 0.00 0.05 0.00 92 1006.4
20260509085116 48 214 5.0 11.0 0.00 0.05 0.00 91 1006.4
20260509084916 47 213 4.0 10.0 0.00 0.05 0.00 91 1006.3
20260509084716 47 210 4.0 15.0 0.00 0.05 0.00 90 1006.4
20260509084515 47 217 3.0 15.0 0.00 0.05 0.00 90 1006.4
20260509084315 47 211 4.0 15.0 0.00 0.05 0.00 90 1006.5
20260509084115 47 219 3.0 15.0 0.00 0.05 0.00 89 1006.6
20260509083914 47 220 4.0 15.0 0.00 0.05 0.00 89 1006.7
20260509083714 47 218 3.0 12.0 0.00 0.05 0.00 89 1006.7
20260509083514 47 209 5.0 12.0 0.00 0.05 0.00 89 1006.7
20260509083313 47 200 5.0 12.0 0.00 0.05 0.00 88 1006.8
20260509083113 47 211 5.0 12.0 0.00 0.05 0.00 88 1006.8
20260509082913 47 213 5.0 12.0 0.00 0.05 0.00 88 1006.7
20260509082713 47 203 4.0 11.0 0.00 0.05 0.00 88 1006.7
20260509082512 47 209 5.0 11.0 0.00 0.05 0.00 87 1006.7
20260509082312 47 221 5.0 11.0 0.00 0.05 0.00 87 1006.7
20260509082112 47 210 6.0 11.0 0.00 0.05 0.00 87 1006.7
20260509081911 47 199 6.0 11.0 0.00 0.05 0.00 87 1006.8
20260509081711 47 213 5.0 10.0 0.00 0.05 0.00 87 1006.7
20260509081511 47 215 4.0 10.0 0.00 0.05 0.00 86 1006.7
20260509081310 47 224 4.0 10.0 0.00 0.05 0.00 86 1006.8
20260509081110 47 212 3.0 10.0 0.00 0.05 0.00 86 1006.9
20260509080910 47 210 2.0 6.0 0.00 0.05 0.00 85 1006.9
20260509080710 47 229 2.0 10.0 0.00 0.05 0.00 84 1006.9
20260509080509 47 223 2.0 10.0 0.00 0.05 0.00 84 1006.9
20260509080309 47 202 1.0 10.0 0.00 0.05 0.00 83 1006.9
20260509080109 47 209 2.0 10.0 0.00 0.05 0.00 83 1006.9
20260509075908 47 224 3.0 10.0 0.00 0.05 0.00 82 1007.0
20260509075708 47 220 3.0 10.0 0.00 0.05 0.00 82 1007.0
20260509075508 47 193 2.0 7.0 0.00 0.05 0.00 82 1006.9
20260509075307 47 212 3.0 7.0 0.00 0.05 0.00 82 1006.9
20260509075107 47 201 3.0 7.0 0.00 0.05 0.00 82 1006.9
20260509074907 47 215 4.0 10.0 0.00 0.05 0.00 82 1006.9
20260509074706 47 213 4.0 10.0 0.00 0.05 0.00 82 1006.9
20260509074506 47 210 5.0 10.0 0.00 0.05 0.00 81 1006.9
20260509074306 47 215 5.0 10.0 0.00 0.05 0.00 81 1006.9
20260509074106 47 223 4.0 10.0 0.00 0.05 0.00 81 1006.9
20260509073905 47 213 4.0 10.0 0.00 0.05 0.00 80 1006.8
20260509073705 47 214 4.0 10.0 0.00 0.05 0.00 80 1006.8
20260509073505 47 214 4.0 12.0 0.00 0.05 0.00 79 1006.8
20260509073304 47 217 4.0 12.0 0.00 0.05 0.00 79 1006.8
20260509073104 47 210 4.0 12.0 0.00 0.05 0.00 79 1006.9
20260509072904 47 202 5.0 12.0 0.00 0.05 0.00 78 1006.9
20260509072703 47 215 5.0 12.0 0.00 0.05 0.00 78 1007.0
20260509072503 47 219 5.0 11.0 0.00 0.05 0.00 78 1006.9
20260509072306 47 221 5.0 9.0 0.00 0.05 0.00 78 1006.9
20260509072103 47 217 4.0 9.0 0.00 0.05 0.00 77 1006.9
20260509071902 47 214 4.0 8.0 0.00 0.05 0.00 77 1006.9
20260509071702 47 204 3.0 8.0 0.00 0.05 0.00 77 1006.9
20260509071502 47 213 4.0 8.0 0.00 0.05 0.00 76 1007.0
20260509071301 47 210 4.0 8.0 0.00 0.05 0.00 76 1007.0
20260509071101 47 212 4.0 7.0 0.00 0.05 0.00 76 1006.9
20260509070901 47 214 3.0 8.0 0.00 0.05 0.00 75 1006.9
20260509070700 47 220 3.0 8.0 0.00 0.05 0.00 75 1006.9
20260509070500 47 222 2.0 8.0 0.00 0.05 0.00 75 1006.9
20260509070300 47 227 3.0 8.0 0.00 0.05 0.00 74 1006.9
20260509070100 47 212 4.0 8.0 0.00 0.05 0.00 74 1006.9
20260509065859 47 208 4.0 8.0 0.00 0.05 0.00 73 1007.0
20260509065659 47 218 4.0 8.0 0.00 0.05 0.00 73 1006.9
20260509065459 47 209 3.0 12.0 0.00 0.05 0.00 72 1006.9
20260509065258 47 220 3.0 12.0 0.00 0.05 0.00 72 1006.9
20260509065058 47 222 4.0 12.0 0.00 0.05 0.00 71 1007.0
20260509064858 47 226 4.0 12.0 0.00 0.05 0.00 71 1006.9
20260509064657 47 213 4.0 12.0 0.00 0.05 0.00 71 1007.0
20260509064457 47 217 4.0 12.0 0.00 0.05 0.00 71 1007.0
20260509064257 47 227 3.0 9.0 0.00 0.05 0.00 71 1007.0
20260509064057 47 229 2.0 9.0 0.00 0.05 0.00 70 1007.0
20260509063856 47 229 2.0 6.0 0.00 0.05 0.00 70 1007.0
20260509063656 47 235 2.0 4.0 0.00 0.05 0.00 70 1007.1
20260509063456 47 233 1.0 3.0 0.00 0.05 0.00 70 1007.1
20260509063255 47 234 1.0 6.0 0.00 0.05 0.00 69 1007.1
20260509063055 47 234 0.0 7.0 0.00 0.05 0.00 69 1007.1
20260509062855 47 234 0.0 7.0 0.00 0.05 0.00 69 1007.1
20260509062654 47 231 2.0 7.0 0.00 0.05 0.00 68 1007.2
20260509062454 47 225 2.0 7.0 0.00 0.05 0.00 68 1007.1
20260509062254 47 223 1.0 7.0 0.00 0.05 0.00 68 1007.2
20260509062054 47 215 0.0 3.0 0.00 0.05 0.00 68 1007.2
20260509061853 47 215 0.0 3.0 0.00 0.05 0.00 68 1007.2
20260509061653 47 215 0.0 4.0 0.00 0.05 0.00 68 1007.3
20260509061453 47 217 1.0 5.0 0.00 0.05 0.00 68 1007.3
20260509061252 47 222 0.0 5.0 0.00 0.05 0.00 68 1007.4
20260509061052 48 228 0.0 5.0 0.00 0.05 0.00 68 1007.5
20260509060852 48 229 2.0 6.0 0.00 0.05 0.00 68 1007.4
20260509060651 48 235 1.0 6.0 0.00 0.05 0.00 68 1007.5
20260509060451 48 237 1.0 6.0 0.00 0.05 0.00 67 1007.6
20260509060251 48 229 2.0 6.0 0.00 0.05 0.00 67 1007.7
20260509060051 48 218 1.0 5.0 0.00 0.05 0.00 67 1007.7
20260509055850 48 214 2.0 7.0 0.00 0.05 0.00 67 1007.8
20260509055650 48 219 2.0 7.0 0.00 0.05 0.00 67 1007.8
20260509055450 48 213 2.0 7.0 0.00 0.05 0.00 67 1007.8
20260509055249 48 218 2.0 7.0 0.00 0.05 0.00 67 1007.9
20260509055049 48 222 3.0 7.0 0.00 0.05 0.00 67 1007.9
20260509054849 48 212 2.0 7.0 0.00 0.05 0.00 67 1007.9
20260509054648 48 216 2.0 9.0 0.00 0.05 0.00 67 1007.9
20260509054448 48 231 2.0 9.0 0.00 0.05 0.00 67 1007.9
20260509054248 48 231 2.0 9.0 0.00 0.05 0.00 67 1008.0
20260509054048 48 227 3.0 9.0 0.00 0.05 0.00 67 1008.0
20260509053847 47 222 2.0 9.0 0.00 0.05 0.00 68 1008.1
20260509053647 47 222 2.0 6.0 0.00 0.05 0.00 68 1008.1
20260509053447 47 220 2.0 6.0 0.00 0.05 0.00 68 1008.2
20260509053246 47 220 3.0 6.0 0.00 0.05 0.00 68 1008.2
20260509053046 47 215 2.0 7.0 0.00 0.05 0.00 68 1008.2
20260509052846 47 223 2.0 8.0 0.00 0.05 0.00 68 1008.2
20260509052645 47 221 2.0 8.0 0.00 0.05 0.00 68 1008.2
20260509052445 47 217 3.0 8.0 0.00 0.05 0.00 69 1008.2
20260509052245 47 220 3.0 8.0 0.00 0.05 0.00 69 1008.3
20260509052045 47 211 3.0 8.0 0.00 0.05 0.00 69 1008.2
20260509051844 47 221 3.0 8.0 0.00 0.05 0.00 70 1008.3
20260509051644 46 220 3.0 8.0 0.00 0.05 0.00 70 1008.3
20260509051444 46 214 4.0 8.0 0.00 0.05 0.00 70 1008.3
20260509051243 46 225 3.0 8.0 0.00 0.05 0.00 71 1008.3
20260509051043 46 211 2.0 8.0 0.00 0.05 0.00 71 1008.4
20260509050843 46 219 2.0 8.0 0.00 0.05 0.00 72 1008.4
20260509050642 46 222 3.0 8.0 0.00 0.05 0.00 72 1008.4
20260509050442 46 217 4.0 8.0 0.00 0.05 0.00 72 1008.4
20260509050242 46 226 3.0 6.0 0.00 0.05 0.00 73 1008.4
20260509050041 46 221 3.0 6.0 0.00 0.05 0.00 73 1008.5
20260509045841 46 224 2.0 10.0 0.00 0.05 0.00 73 1008.4
20260509045641 46 229 2.0 10.0 0.00 0.05 0.00 74 1008.4
20260509045441 46 215 2.0 10.0 0.00 0.05 0.00 74 1008.5
20260509045240 46 205 4.0 10.0 0.00 0.05 0.00 74 1008.5
20260509045040 45 220 3.0 10.0 0.00 0.05 0.00 74 1008.4
20260509044840 45 222 3.0 7.0 0.00 0.05 0.00 75 1008.5
20260509044639 45 215 3.0 6.0 0.00 0.05 0.00 75 1008.4
20260509044439 45 217 3.0 6.0 0.00 0.05 0.00 75 1008.5
20260509044239 45 215 4.0 6.0 0.00 0.05 0.00 75 1008.5
20260509044039 45 216 3.0 6.0 0.00 0.05 0.00 76 1008.5
20260509043838 45 207 3.0 6.0 0.00 0.05 0.00 76 1008.5
20260509043638 45 209 3.0 6.0 0.00 0.05 0.00 76 1008.6
20260509043438 45 215 2.0 8.0 0.00 0.05 0.00 76 1008.6
20260509043237 45 234 1.0 9.0 0.00 0.05 0.00 77 1008.6
20260509043037 45 225 3.0 10.0 0.00 0.05 0.00 77 1008.6
20260509042837 45 218 3.0 10.0 0.00 0.05 0.00 77 1008.6
20260509042636 45 219 3.0 10.0 0.00 0.05 0.00 77 1008.5
20260509042436 45 211 4.0 10.0 0.00 0.05 0.00 77 1008.6
20260509042236 45 224 3.0 8.0 0.00 0.05 0.00 77 1008.7
20260509042035 45 214 3.0 9.0 0.00 0.05 0.00 78 1008.6
20260509041835 45 211 4.0 9.0 0.00 0.05 0.00 78 1008.7
20260509041635 45 220 3.0 9.0 0.00 0.05 0.00 78 1008.7
20260509041435 45 220 3.0 9.0 0.00 0.05 0.00 78 1008.7
20260509041234 45 214 4.0 9.0 0.00 0.05 0.00 78 1008.7
20260509041034 45 216 4.0 9.0 0.00 0.05 0.00 78 1008.8
20260509040834 45 213 4.0 9.0 0.00 0.05 0.00 79 1008.8
20260509040633 45 221 3.0 9.0 0.00 0.05 0.00 79 1008.7
20260509040433 45 225 3.0 11.0 0.00 0.05 0.00 79 1008.8
20260509040233 45 224 4.0 11.0 0.00 0.05 0.00 78 1008.8
20260509040032 45 210 5.0 11.0 0.00 0.05 0.00 79 1008.7
20260509035832 45 218 4.0 11.0 0.00 0.05 0.05 78 1008.8
20260509035632 45 216 4.0 11.0 0.00 0.05 0.05 78 1008.8
20260509035432 45 216 4.0 7.0 0.00 0.05 0.05 79 1008.7
20260509035231 45 225 3.0 6.0 0.00 0.05 0.05 79 1008.7
20260509035031 46 223 1.0 6.0 0.00 0.05 0.05 79 1008.8
20260509034831 46 225 2.0 5.0 0.00 0.05 0.05 79 1008.8
20260509034630 46 228 2.0 5.0 0.00 0.05 0.05 79 1008.8
20260509034430 46 238 1.0 5.0 0.00 0.05 0.05 78 1008.7
20260509034230 46 232 2.0 5.0 0.00 0.05 0.05 78 1008.8
20260509034029 46 226 2.0 5.0 0.00 0.05 0.05 78 1008.8
20260509033829 46 226 1.0 5.0 0.00 0.05 0.05 78 1008.8
20260509033629 46 228 1.0 5.0 0.00 0.05 0.05 78 1008.9
20260509033429 46 233 0.0 5.0 0.00 0.05 0.05 78 1008.9
20260509033228 46 231 1.0 5.0 0.00 0.05 0.05 78 1008.8
20260509033028 46 217 1.0 5.0 0.00 0.05 0.05 78 1008.9
20260509032828 46 199 1.0 5.0 0.00 0.05 0.05 78 1008.8
20260509032627 46 223 2.0 5.0 0.00 0.05 0.05 78 1008.9
20260509032427 46 227 2.0 5.0 0.00 0.05 0.05 78 1008.9
20260509032227 46 221 1.0 9.0 0.00 0.05 0.05 77 1008.9
20260509032026 46 225 1.0 10.0 0.00 0.05 0.05 77 1009.0
20260509031826 46 220 2.0 10.0 0.00 0.05 0.05 77 1009.0
20260509031626 46 222 3.0 10.0 0.00 0.05 0.05 77 1009.1
20260509031426 47 220 3.0 10.0 0.00 0.05 0.05 77 1009.1
20260509031225 47 218 2.0 10.0 0.00 0.05 0.05 76 1009.1
20260509031025 47 217 3.0 8.0 0.00 0.05 0.05 76 1009.1
20260509030825 47 219 4.0 8.0 0.00 0.05 0.05 76 1009.2
20260509030624 47 215 3.0 6.0 0.00 0.05 0.05 76 1009.1
20260509030424 47 216 2.0 6.0 0.00 0.05 0.05 76 1009.2
20260509030224 47 224 2.0 6.0 0.00 0.05 0.05 76 1009.3
20260509030023 47 228 1.0 6.0 0.00 0.05 0.05 76 1009.2
20260509025823 47 219 2.0 7.0 0.00 0.05 0.05 76 1009.2
20260509025623 47 218 2.0 7.0 0.00 0.05 0.05 76 1009.2
20260509025423 47 215 2.0 7.0 0.00 0.05 0.05 76 1009.3
20260509025222 47 226 3.0 7.0 0.00 0.05 0.05 76 1009.2
20260509025022 47 223 3.0 6.0 0.00 0.05 0.05 76 1009.3
20260509024822 47 220 2.0 7.0 0.00 0.05 0.05 75 1009.3
20260509024621 47 226 2.0 7.0 0.00 0.05 0.05 75 1009.3
20260509024421 47 211 3.0 7.0 0.00 0.05 0.05 75 1009.3
20260509024221 47 211 3.0 8.0 0.00 0.05 0.05 75 1009.4
20260509024020 47 219 3.0 8.0 0.00 0.05 0.05 75 1009.4
20260509023820 47 219 2.0 8.0 0.00 0.05 0.05 75 1009.4
20260509023620 47 221 3.0 8.0 0.00 0.05 0.05 75 1009.4
20260509023420 47 217 3.0 8.0 0.00 0.05 0.05 75 1009.4
20260509023219 47 218 2.0 6.0 0.00 0.05 0.05 75 1009.4
20260509023019 47 219 3.0 6.0 0.00 0.05 0.05 75 1009.5
20260509022819 47 219 3.0 6.0 0.00 0.05 0.05 75 1009.5
20260509022618 47 218 2.0 6.0 0.00 0.05 0.05 74 1009.4
20260509022418 47 204 2.0 6.0 0.00 0.05 0.05 74 1009.5
20260509022218 47 203 2.0 7.0 0.00 0.05 0.05 74 1009.5
20260509022017 47 229 2.0 7.0 0.00 0.05 0.05 74 1009.6
20260509021817 47 218 2.0 7.0 0.00 0.05 0.05 74 1009.5
20260509021617 48 218 3.0 7.0 0.00 0.05 0.05 74 1009.5
20260509021417 47 216 3.0 7.0 0.00 0.05 0.05 74 1009.5
20260509021216 47 218 3.0 7.0 0.00 0.05 0.05 74 1009.5
20260509021016 47 215 4.0 7.0 0.00 0.05 0.05 74 1009.5
20260509020816 47 215 3.0 6.0 0.00 0.05 0.05 74 1009.6
20260509020615 47 213 2.0 8.0 0.00 0.05 0.05 73 1009.5
20260509020415 48 213 3.0 8.0 0.00 0.05 0.05 73 1009.5
20260509020215 48 225 3.0 8.0 0.00 0.05 0.05 73 1009.6
20260509020014 48 218 3.0 8.0 0.00 0.05 0.05 73 1009.6
20260509015814 48 221 3.0 8.0 0.00 0.05 0.05 73 1009.5
20260509015614 48 222 3.0 6.0 0.00 0.05 0.05 73 1009.6
20260509015414 48 217 3.0 6.0 0.00 0.05 0.05 72 1009.6
20260509015213 48 235 2.0 6.0 0.00 0.05 0.05 72 1009.6
20260509015013 48 232 2.0 5.0 0.00 0.05 0.05 72 1009.5
20260509014813 48 227 2.0 5.0 0.00 0.05 0.05 72 1009.4
20260509014612 48 219 2.0 4.0 0.00 0.05 0.05 72 1009.5
20260509014412 48 231 1.0 4.0 0.00 0.05 0.05 72 1009.4
20260509014212 48 229 2.0 4.0 0.00 0.05 0.05 72 1009.3
20260509014011 48 232 1.0 4.0 0.00 0.05 0.05 72 1009.4
20260509013811 48 233 1.0 5.0 0.00 0.05 0.05 72 1009.3
20260509013611 48 233 1.0 5.0 0.00 0.05 0.05 71 1009.3
20260509013411 48 228 1.0 5.0 0.00 0.05 0.05 71 1009.2
20260509013210 48 228 1.0 5.0 0.00 0.05 0.05 71 1009.2
20260509013010 48 233 1.0 5.0 0.00 0.05 0.05 71 1009.1
20260509012810 49 215 2.0 5.0 0.00 0.05 0.05 70 1009.1
20260509012609 49 222 2.0 5.0 0.00 0.05 0.05 70 1009.1
20260509012409 49 217 3.0 5.0 0.00 0.05 0.05 70 1009.1
20260509012209 49 238 1.0 5.0 0.00 0.05 0.05 70 1009.1
20260509012008 49 241 1.0 5.0 0.00 0.05 0.05 70 1009.1
20260509011808 49 240 1.0 6.0 0.00 0.05 0.05 70 1009.1
20260509011608 49 224 2.0 7.0 0.00 0.05 0.05 70 1009.0
20260509011408 49 222 2.0 7.0 0.00 0.05 0.05 69 1009.1
20260509011207 49 221 2.0 7.0 0.00 0.05 0.05 69 1009.1
20260509011007 49 220 3.0 7.0 0.00 0.05 0.05 69 1009.0
20260509010807 49 223 2.0 8.0 0.00 0.05 0.05 69 1009.0
20260509010606 49 223 2.0 8.0 0.00 0.05 0.05 68 1009.0
20260509010406 50 215 1.0 8.0 0.00 0.05 0.05 68 1009.1
20260509010206 50 216 2.0 8.0 0.00 0.05 0.05 68 1009.0
20260509010005 50 218 3.0 8.0 0.00 0.05 0.05 68 1009.0
20260509005805 50 228 2.0 7.0 0.00 0.05 0.05 68 1009.0
20260509005605 50 229 3.0 7.0 0.00 0.05 0.05 67 1009.0
20260509005405 50 224 3.0 7.0 0.00 0.05 0.05 67 1009.0
20260509005204 50 222 3.0 7.0 0.00 0.05 0.05 67 1009.0
20260509005004 50 225 3.0 7.0 0.00 0.05 0.05 66 1009.0
20260509004925 50 225 3.0 7.0 0.00 0.05 0.05 66 1009.0
20260509004724 50 220 3.0 8.0 0.00 0.05 0.05 66 1009.0
20260509004524 50 220 2.0 8.0 0.00 0.05 0.05 66 1009.1
20260509004324 50 218 3.0 8.0 0.00 0.05 0.05 65 1009.1
20260509004123 50 205 4.0 8.0 0.00 0.05 0.05 65 1009.0
20260509003923 51 222 4.0 8.0 0.00 0.05 0.05 65 1009.1
20260509003723 51 236 3.0 8.0 0.00 0.05 0.05 64 1009.0
20260509003523 51 231 3.0 8.0 0.00 0.05 0.05 64 1009.1
20260509003322 51 223 4.0 8.0 0.00 0.05 0.05 64 1009.1
20260509003122 51 226 3.0 7.0 0.00 0.05 0.05 64 1009.0
20260509002922 51 238 2.0 7.0 0.00 0.05 0.05 64 1009.1
20260509002721 51 233 3.0 7.0 0.00 0.05 0.05 63 1009.0
20260509002521 51 233 3.0 7.0 0.00 0.05 0.05 63 1009.1
20260509002321 51 234 3.0 7.0 0.00 0.05 0.05 62 1009.1
20260509002120 52 232 2.0 7.0 0.00 0.05 0.05 62 1009.1
20260509001920 52 228 3.0 7.0 0.00 0.05 0.05 62 1009.1
20260509001720 52 235 2.0 7.0 0.00 0.05 0.05 61 1009.1
20260509001520 52 226 2.0 8.0 0.00 0.05 0.05 61 1009.0
20260509001319 52 230 2.0 8.0 0.00 0.05 0.05 61 1009.0
20260509001119 52 217 2.0 8.0 0.00 0.05 0.05 61 1009.0
20260509000919 52 223 3.0 8.0 0.00 0.05 0.05 60 1009.1
20260509000718 52 237 2.0 8.0 0.00 0.05 0.05 60 1009.1
20260509000518 52 227 3.0 8.0 0.00 0.05 0.05 60 1009.0
20260509000318 53 225 3.0 8.0 0.00 0.05 0.05 60 1009.0
20260509000117 53 228 4.0 9.0 0.00 0.05 0.05 59 1009.0
20260508235917 53 226 3.0 9.0 0.00 0.05 0.05 59 1008.9
20260508235717 53 227 3.0 9.0 0.00 0.05 0.05 59 1008.9
20260508235517 53 224 5.0 12.0 0.00 0.05 0.05 59 1008.9
20260508235316 53 216 4.0 13.0 0.00 0.05 0.05 59 1008.9
20260508235116 53 227 4.0 13.0 0.00 0.05 0.05 59 1008.9
20260508234916 53 227 3.0 13.0 0.00 0.05 0.05 58 1008.9
20260508234715 53 226 5.0 13.0 0.00 0.05 0.05 58 1008.9
20260508234515 54 223 4.0 13.0 0.00 0.05 0.05 58 1008.9
20260508234315 54 220 3.0 11.0 0.00 0.05 0.05 58 1008.8
20260508234108 54 213 4.0 11.0 0.00 0.05 0.05 58 1008.9
20260508233908 54 214 5.0 11.0 0.00 0.05 0.05 57 1008.9
20260508233708 54 217 5.0 11.0 0.00 0.05 0.05 58 1008.7
20260508233507 54 230 3.0 11.0 0.00 0.05 0.05 58 1008.7
20260508233307 54 214 4.0 10.0 0.00 0.05 0.05 58 1008.7
20260508233107 54 224 4.0 10.0 0.00 0.05 0.05 57 1008.7
20260508232906 54 226 3.0 12.0 0.00 0.05 0.05 57 1008.7
20260508232706 54 217 4.0 12.0 0.00 0.05 0.05 57 1008.6
20260508232506 54 210 4.0 12.0 0.00 0.05 0.05 56 1008.6
20260508232307 54 216 5.0 13.0 0.00 0.05 0.05 56 1008.8
20260508232105 54 198 5.0 14.0 0.00 0.05 0.05 56 1008.8
20260508231905 54 209 5.0 14.0 0.00 0.05 0.05 56 1008.7
20260508231704 54 209 5.0 14.0 0.00 0.05 0.05 56 1008.8
20260508231504 54 210 6.0 14.0 0.00 0.05 0.05 56 1008.7
20260508231304 54 223 3.0 14.0 0.00 0.05 0.05 55 1008.7
20260508231104 54 226 4.0 14.0 0.00 0.05 0.05 55 1008.7
20260508230903 54 207 8.0 15.0 0.00 0.05 0.05 54 1008.7
20260508230703 55 212 8.0 15.0 0.00 0.05 0.05 53 1008.7
20260508230503 55 207 7.0 15.0 0.00 0.05 0.05 54 1008.7
20260508230302 55 213 6.0 15.0 0.00 0.05 0.05 54 1008.8
20260508225902 55 225 7.0 15.0 0.00 0.05 0.05 53 1008.8
20260508225701 56 227 6.0 15.0 0.00 0.05 0.05 52 1008.7
20260508225501 56 228 6.0 15.0 0.00 0.05 0.05 53 1008.7
20260508225301 56 228 6.0 15.0 0.00 0.05 0.05 52 1008.7
20260508225101 56 222 5.0 16.0 0.00 0.05 0.05 52 1008.7
20260508224900 56 223 4.0 16.0 0.00 0.05 0.05 54 1008.6
20260508224700 56 231 5.0 16.0 0.00 0.05 0.05 54 1008.7
20260508224500 56 222 7.0 16.0 0.00 0.05 0.05 54 1008.7
20260508224259 57 231 5.0 16.0 0.00 0.05 0.05 53 1008.7
20260508224059 57 236 4.0 16.0 0.00 0.05 0.05 53 1008.7
20260508223859 57 215 6.0 18.0 0.00 0.05 0.05 54 1008.6
20260508223658 57 216 8.0 18.0 0.00 0.05 0.05 53 1008.7
20260508223458 57 223 7.0 18.0 0.00 0.05 0.05 53 1008.7
20260508223258 57 222 8.0 18.0 0.00 0.05 0.05 52 1008.7
20260508223058 57 222 7.0 18.0 0.00 0.05 0.05 52 1008.6
20260508222857 57 227 6.0 17.0 0.00 0.05 0.05 52 1008.6
20260508222657 57 219 8.0 17.0 0.00 0.05 0.05 53 1008.6
20260508222457 57 213 8.0 14.0 0.00 0.05 0.05 52 1008.6
20260508222256 58 221 6.0 14.0 0.00 0.05 0.05 53 1008.6
20260508222057 58 228 6.0 14.0 0.00 0.05 0.05 52 1008.6
20260508221856 58 226 6.0 14.0 0.00 0.05 0.05 52 1008.6
20260508221655 58 214 7.0 14.0 0.00 0.05 0.05 53 1008.6
20260508221455 58 214 7.0 16.0 0.00 0.05 0.05 52 1008.6
20260508221255 58 215 7.0 18.0 0.00 0.05 0.05 52 1008.6
20260508221055 58 223 5.0 19.0 0.00 0.05 0.05 53 1008.6
20260508220854 58 219 7.0 19.0 0.00 0.05 0.05 53 1008.6
20260508220654 58 224 8.0 19.0 0.00 0.05 0.05 53 1008.6
20260508220454 58 215 9.0 19.0 0.00 0.05 0.05 52 1008.5
20260508220253 58 211 10.0 19.0 0.00 0.05 0.05 51 1008.6
20260508220053 58 215 8.0 16.0 0.00 0.05 0.05 51 1008.5
20260508215853 58 211 6.0 17.0 0.00 0.07 0.05 52 1008.5
20260508215652 58 220 6.0 17.0 0.00 0.07 0.05 53 1008.6
20260508215452 58 208 8.0 17.0 0.00 0.07 0.05 53 1008.6
20260508215252 58 209 9.0 17.0 0.00 0.07 0.05 53 1008.6
20260508215052 58 214 7.0 17.0 0.00 0.07 0.05 52 1008.6
20260508214851 58 218 5.0 17.0 0.00 0.07 0.05 53 1008.6
20260508214651 58 222 6.0 17.0 0.00 0.07 0.05 54 1008.6
20260508214451 58 216 7.0 20.0 0.00 0.07 0.05 55 1008.6
20260508214250 58 219 8.0 20.0 0.00 0.07 0.05 54 1008.6
20260508214050 58 209 8.0 20.0 0.00 0.07 0.05 54 1008.6
20260508213850 58 214 8.0 20.0 0.00 0.07 0.05 54 1008.5
20260508213649 58 210 9.0 20.0 0.00 0.07 0.05 53 1008.6
20260508213449 58 210 8.0 20.0 0.00 0.07 0.05 54 1008.7
20260508213249 58 212 6.0 17.0 0.00 0.07 0.05 53 1008.7
20260508213049 59 217 7.0 13.0 0.00 0.07 0.05 54 1008.6
20260508212848 59 223 5.0 13.0 0.00 0.07 0.05 54 1008.6
20260508212648 59 226 5.0 15.0 0.00 0.07 0.05 54 1008.6
20260508212448 59 227 4.0 15.0 0.00 0.07 0.05 54 1008.6
20260508212247 58 220 5.0 15.0 0.00 0.07 0.05 55 1008.6
20260508212047 58 224 6.0 18.0 0.00 0.07 0.05 55 1008.6
20260508211847 58 236 6.0 19.0 0.00 0.07 0.05 55 1008.6
20260508211646 58 230 5.0 19.0 0.00 0.07 0.05 55 1008.6
20260508211446 58 219 7.0 24.0 0.00 0.07 0.05 54 1008.6
20260508211246 58 217 8.0 24.0 0.00 0.07 0.05 54 1008.7
20260508211046 58 217 7.0 24.0 0.00 0.07 0.05 53 1008.6
20260508210845 58 221 9.0 24.0 0.00 0.07 0.05 54 1008.6
20260508210645 58 222 8.0 24.0 0.00 0.07 0.05 54 1008.6
20260508210445 58 220 6.0 13.0 0.00 0.07 0.05 55 1008.6
20260508210244 57 231 7.0 13.0 0.00 0.07 0.05 54 1008.7
20260508210044 57 226 6.0 13.0 0.00 0.07 0.05 56 1008.7
20260508205844 57 231 6.0 14.0 0.00 0.07 0.05 56 1008.7
20260508205643 56 214 7.0 14.0 0.00 0.07 0.05 56 1008.7
20260508205443 56 219 5.0 14.0 0.00 0.07 0.05 56 1008.7
20260508205243 57 213 7.0 14.0 0.00 0.07 0.05 55 1008.7
20260508205042 57 215 7.0 14.0 0.00 0.07 0.05 55 1008.7
20260508204842 58 219 7.0 14.0 0.00 0.07 0.05 54 1008.6
20260508204642 58 219 7.0 15.0 0.00 0.07 0.05 55 1008.7
20260508204442 57 213 7.0 16.0 0.00 0.07 0.05 55 1008.7
20260508204241 57 220 6.0 16.0 0.00 0.07 0.05 55 1008.7
20260508204041 58 225 6.0 16.0 0.00 0.07 0.05 55 1008.7
20260508203841 58 228 8.0 16.0 0.00 0.07 0.05 55 1008.6
20260508203640 58 229 7.0 16.0 0.00 0.07 0.05 54 1008.7
20260508203440 59 225 7.0 16.0 0.00 0.07 0.05 54 1008.6
20260508203240 59 221 7.0 16.0 0.00 0.07 0.05 55 1008.8
20260508203040 59 219 6.0 16.0 0.00 0.07 0.05 54 1008.8
20260508202839 59 225 5.0 13.0 0.00 0.07 0.05 55 1008.7
20260508202639 59 213 6.0 18.0 0.00 0.07 0.05 54 1008.8
20260508202439 59 218 6.0 18.0 0.00 0.07 0.05 54 1008.8
20260508202238 59 214 6.0 19.0 0.00 0.07 0.05 54 1008.8
20260508202038 59 217 8.0 20.0 0.00 0.07 0.05 55 1008.8
20260508201838 59 220 7.0 20.0 0.00 0.07 0.05 54 1008.8
20260508201637 59 219 6.0 20.0 0.00 0.07 0.05 56 1008.8
20260508201437 59 209 9.0 20.0 0.00 0.07 0.05 55 1008.8
20260508201237 59 218 7.0 16.0 0.00 0.07 0.05 55 1008.9
20260508201036 60 219 6.0 13.0 0.00 0.07 0.05 55 1008.9
20260508200836 60 226 5.0 13.0 0.00 0.07 0.05 55 1008.9
20260508200636 60 230 3.0 18.0 0.00 0.07 0.05 57 1008.9
20260508200436 59 223 3.0 18.0 0.00 0.07 0.05 56 1009.0
20260508200235 59 219 5.0 18.0 0.00 0.07 0.05 57 1008.9
20260508200035 58 253 4.0 18.0 0.00 0.07 0.05 56 1008.9
20260508195835 59 229 6.0 18.0 0.00 0.07 0.05 56 1009.0
20260508195634 59 221 6.0 18.0 0.00 0.07 0.05 59 1009.0
20260508195434 58 218 5.0 15.0 0.00 0.07 0.05 59 1009.0
20260508195234 58 214 5.0 15.0 0.00 0.07 0.05 60 1009.0
20260508195033 57 206 3.0 15.0 0.00 0.07 0.05 62 1009.0
20260508194833 56 194 5.0 15.0 0.00 0.07 0.05 62 1009.1
20260508194633 56 203 5.0 15.0 0.00 0.07 0.05 62 1009.1
20260508194433 56 210 5.0 12.0 0.00 0.07 0.05 62 1009.2
20260508194232 56 218 7.0 12.0 0.00 0.07 0.05 62 1009.2
20260508194032 56 219 6.0 15.0 0.00 0.07 0.05 62 1009.3
20260508193832 56 235 4.0 15.0 0.00 0.07 0.05 62 1009.2
20260508193631 56 223 5.0 15.0 0.00 0.07 0.05 62 1009.3
20260508193431 56 218 7.0 15.0 0.00 0.07 0.05 62 1009.3
20260508193231 56 211 7.0 18.0 0.00 0.07 0.05 61 1009.3
20260508193030 57 218 7.0 18.0 0.00 0.07 0.05 61 1009.4
20260508192830 57 208 8.0 19.0 0.00 0.07 0.05 61 1009.5
20260508192630 57 215 8.0 20.0 0.00 0.07 0.05 60 1009.5
20260508192430 58 221 7.0 20.0 0.00 0.07 0.05 60 1009.5
20260508192229 57 220 9.0 20.0 0.00 0.07 0.05 60 1009.5
20260508192029 57 217 10.0 20.0 0.00 0.07 0.05 59 1009.5
20260508191829 58 198 7.0 20.0 0.00 0.07 0.05 61 1009.5
20260508191628 58 252 4.0 13.0 0.00 0.07 0.05 63 1009.5
20260508191428 57 243 4.0 13.0 0.00 0.07 0.05 63 1009.6
20260508191228 56 237 5.0 13.0 0.00 0.07 0.05 62 1009.5
20260508191027 56 228 5.0 13.0 0.00 0.07 0.05 63 1009.6
20260508190827 56 229 4.0 12.0 0.00 0.07 0.05 64 1009.6
20260508190627 55 230 5.0 12.0 0.00 0.07 0.05 65 1009.7
20260508190427 56 230 5.0 15.0 0.00 0.07 0.05 64 1009.6
20260508190226 56 227 6.0 15.0 0.00 0.07 0.05 64 1009.7
20260508190026 56 224 6.0 15.0 0.00 0.07 0.05 64 1009.7
20260508185826 56 219 7.0 16.0 0.00 0.07 0.05 63 1009.6
20260508185625 57 215 6.0 16.0 0.00 0.07 0.05 62 1009.7
20260508185425 57 218 6.0 16.0 0.00 0.07 0.05 62 1009.7
20260508185225 58 222 6.0 16.0 0.00 0.07 0.05 63 1009.7
20260508185024 57 219 7.0 16.0 0.00 0.07 0.05 64 1009.7
20260508184824 56 219 6.0 16.0 0.00 0.07 0.05 65 1009.7
20260508184624 56 221 6.0 14.0 0.00 0.07 0.05 64 1009.8
20260508184424 56 227 5.0 19.0 0.00 0.07 0.05 63 1009.8
20260508184223 56 226 6.0 20.0 0.00 0.07 0.05 63 1009.8
20260508184023 56 226 7.0 20.0 0.00 0.07 0.05 64 1009.7
20260508183823 56 234 6.0 20.0 0.00 0.07 0.05 64 1009.8
20260508183622 57 230 8.0 20.0 0.00 0.07 0.05 64 1009.8
20260508183422 57 218 10.0 20.0 0.00 0.07 0.05 63 1009.8
20260508183222 58 217 8.0 17.0 0.00 0.07 0.05 62 1009.8
20260508183021 57 225 7.0 13.0 0.00 0.07 0.05 64 1009.9
20260508182821 57 217 5.0 13.0 0.00 0.07 0.05 66 1010.0
20260508182621 56 220 4.0 14.0 0.00 0.07 0.05 66 1010.0
20260508182421 55 227 3.0 15.0 0.00 0.07 0.05 66 1010.0
20260508182220 55 27 1.0 15.0 0.00 0.07 0.05 66 1010.0
20260508182020 55 240 5.0 15.0 0.00 0.07 0.05 66 1010.0
20260508181820 55 226 7.0 15.0 0.00 0.07 0.05 66 1010.1
20260508181619 56 231 5.0 15.0 0.00 0.07 0.05 65 1010.1
20260508181419 56 219 6.0 11.0 0.00 0.07 0.05 64 1010.1
20260508181219 56 232 4.0 11.0 0.00 0.07 0.05 62 1010.2
20260508181018 56 242 2.0 12.0 0.00 0.07 0.05 64 1010.1
20260508180818 56 231 2.0 12.0 0.00 0.07 0.05 65 1010.2
20260508180618 55 229 3.0 12.0 0.00 0.07 0.05 65 1010.2
20260508180418 55 222 5.0 12.0 0.00 0.07 0.05 65 1010.3
20260508180217 55 231 4.0 13.0 0.00 0.07 0.05 66 1010.3
20260508180017 56 232 5.0 14.0 0.00 0.07 0.05 66 1010.3
20260508175817 56 243 3.0 14.0 0.00 0.07 0.05 65 1010.3
20260508175616 56 233 4.0 14.0 0.00 0.07 0.05 66 1010.3
20260508175416 56 211 8.0 14.0 0.00 0.07 0.05 67 1010.5
20260508175216 56 216 8.0 12.0 0.00 0.07 0.05 66 1010.4
20260508175015 56 221 7.0 12.0 0.00 0.07 0.05 66 1010.4
20260508174815 56 240 5.0 12.0 0.00 0.07 0.05 66 1010.3
20260508174615 56 233 6.0 12.0 0.00 0.07 0.05 66 1010.3
20260508174414 56 232 5.0 12.0 0.00 0.07 0.05 64 1010.3
20260508174214 56 217 5.0 11.0 0.00 0.07 0.05 64 1010.4
20260508174014 56 217 5.0 15.0 0.00 0.07 0.05 63 1010.3
20260508173814 56 251 3.0 15.0 0.00 0.07 0.05 63 1010.4
20260508173613 57 267 2.0 15.0 0.00 0.07 0.05 63 1010.3
20260508173413 57 238 6.0 15.0 0.00 0.07 0.05 63 1010.4
20260508173213 57 214 8.0 15.0 0.00 0.07 0.05 63 1010.4
20260508173012 57 228 5.0 11.0 0.00 0.07 0.05 61 1010.3
20260508172812 57 241 5.0 11.0 0.00 0.07 0.05 62 1010.3
20260508172612 57 223 5.0 12.0 0.00 0.07 0.05 64 1010.3
20260508172412 57 238 4.0 12.0 0.00 0.07 0.05 63 1010.3
20260508172211 57 232 5.0 12.0 0.00 0.07 0.05 62 1010.4
20260508172011 57 218 4.0 16.0 0.00 0.07 0.05 63 1010.4
20260508171811 57 211 5.0 17.0 0.00 0.07 0.05 63 1010.5
20260508171610 57 238 2.0 17.0 0.00 0.07 0.05 61 1010.5
20260508171410 58 230 2.0 17.0 0.00 0.07 0.05 62 1010.5
20260508171210 58 207 6.0 17.0 0.00 0.07 0.05 60 1010.6
20260508171009 58 216 3.0 9.0 0.00 0.07 0.05 54 1010.5
20260508170809 58 207 4.0 8.0 0.00 0.07 0.05 51 1010.6
20260508170609 58 87 2.0 10.0 0.00 0.07 0.05 51 1010.5
20260508170409 58 196 3.0 10.0 0.00 0.07 0.05 50 1010.5
20260508170208 58 179 2.0 12.0 0.00 0.07 0.05 50 1010.5
20260508170008 58 110 3.0 12.0 0.00 0.07 0.05 49 1010.6
20260508165808 59 204 3.0 12.0 0.00 0.07 0.05 50 1010.7
20260508165607 58 226 3.0 12.0 0.00 0.07 0.05 50 1010.7
20260508165407 59 206 4.0 12.0 0.00 0.07 0.05 49 1010.7
20260508165207 59 214 4.0 12.0 0.00 0.07 0.05 50 1010.7
20260508165006 59 204 4.0 12.0 0.00 0.07 0.05 51 1010.7
20260508164806 59 187 4.0 12.0 0.00 0.07 0.05 50 1010.7
20260508164606 58 218 3.0 10.0 0.00 0.07 0.05 52 1010.8
20260508164405 58 226 3.0 9.0 0.00 0.07 0.05 53 1010.8
20260508164205 58 200 4.0 9.0 0.00 0.07 0.05 52 1010.8
20260508164005 58 153 2.0 9.0 0.00 0.07 0.05 52 1010.9
20260508163805 58 57 2.0 9.0 0.00 0.07 0.05 52 1010.9
20260508163604 57 95 2.0 10.0 0.00 0.07 0.05 52 1010.9
20260508163404 57 63 3.0 10.0 0.00 0.07 0.05 52 1011.0
20260508163204 57 63 4.0 10.0 0.00 0.07 0.05 52 1011.0
20260508163003 57 171 2.0 11.0 0.00 0.07 0.05 52 1010.9
20260508162803 57 202 2.0 11.0 0.00 0.07 0.05 53 1011.0
20260508162603 57 247 4.0 11.0 0.00 0.07 0.05 52 1011.0
20260508162402 56 243 4.0 11.0 0.00 0.07 0.05 51 1011.1
20260508162202 56 181 5.0 11.0 0.00 0.07 0.05 50 1011.2
20260508162002 57 130 2.0 11.0 0.00 0.07 0.05 51 1011.1
20260508161802 56 110 2.0 8.0 0.00 0.07 0.05 54 1011.1
20260508161601 56 118 1.0 9.0 0.00 0.07 0.05 55 1011.0
20260508161401 55 203 2.0 9.0 0.00 0.07 0.05 54 1011.1
20260508161201 55 109 3.0 9.0 0.00 0.07 0.05 52 1011.2
20260508161000 55 112 4.0 9.0 0.00 0.07 0.05 53 1011.2
20260508160800 56 160 2.0 9.0 0.00 0.07 0.05 54 1011.2
20260508160600 56 193 2.0 5.0 0.00 0.07 0.05 55 1011.2
20260508160359 56 162 2.0 5.0 0.00 0.07 0.05 55 1011.2
20260508160159 55 163 1.0 5.0 0.00 0.07 0.05 54 1011.1
20260508155959 55 101 1.0 5.0 0.00 0.07 0.05 53 1011.3
20260508155759 54 65 1.0 5.0 0.00 0.07 0.05 55 1011.2
20260508155558 54 15 1.0 5.0 0.00 0.07 0.05 55 1011.2
20260508155358 54 331 1.0 6.0 0.00 0.07 0.05 55 1011.3
20260508155158 54 22 1.0 6.0 0.00 0.07 0.05 54 1011.4
20260508154957 54 263 1.0 6.0 0.00 0.07 0.05 57 1011.3
20260508154757 54 237 1.0 6.0 0.00 0.07 0.05 60 1011.3
20260508154557 54 217 2.0 10.0 0.00 0.07 0.05 60 1011.3
20260508154356 54 242 2.0 11.0 0.00 0.07 0.05 59 1011.3
20260508154156 54 246 1.0 11.0 0.00 0.07 0.05 60 1011.2
20260508153956 54 244 1.0 11.0 0.00 0.07 0.05 60 1011.3
20260508153756 54 222 3.0 11.0 0.00 0.07 0.05 62 1011.3
20260508153555 53 252 1.0 8.0 0.00 0.07 0.05 63 1011.3
20260508153355 53 242 1.0 8.0 0.00 0.07 0.05 64 1011.3
20260508153155 53 214 1.0 8.0 0.00 0.07 0.05 63 1011.3
20260508152954 53 183 3.0 8.0 0.00 0.07 0.05 63 1011.4
20260508152754 53 145 2.0 8.0 0.00 0.07 0.05 62 1011.4
20260508152554 53 74 0.0 8.0 0.00 0.07 0.05 61 1011.4
20260508152353 53 84 1.0 8.0 0.00 0.07 0.05 62 1011.4
20260508152153 53 205 3.0 8.0 0.00 0.07 0.05 62 1011.4
20260508151953 53 111 3.0 8.0 0.00 0.07 0.05 61 1011.4
20260508151753 54 54 2.0 7.0 0.00 0.07 0.05 61 1011.4
20260508151552 54 205 1.0 7.0 0.00 0.07 0.05 61 1011.4
20260508151352 54 229 2.0 7.0 0.00 0.07 0.05 61 1011.4
20260508151152 54 236 2.0 7.0 0.00 0.07 0.05 62 1011.4
20260508150951 54 281 1.0 7.0 0.00 0.07 0.05 62 1011.5
20260508150751 54 261 1.0 7.0 0.00 0.07 0.05 63 1011.5
20260508150551 53 174 0.0 7.0 0.00 0.07 0.05 64 1011.5
20260508150350 53 111 1.0 7.0 0.00 0.07 0.05 64 1011.5
20260508150150 52 167 2.0 7.0 0.00 0.07 0.05 64 1011.6
20260508145950 52 222 0.0 6.0 0.00 0.07 0.05 65 1011.6
20260508145750 52 252 2.0 6.0 0.00 0.07 0.05 67 1011.5
20260508145549 52 213 2.0 6.0 0.00 0.07 0.05 68 1011.6
20260508145349 52 224 1.0 6.0 0.00 0.07 0.05 68 1011.6
20260508145149 52 223 2.0 6.0 0.00 0.07 0.05 66 1011.6
20260508144948 52 261 1.0 6.0 0.00 0.07 0.05 67 1011.5
20260508144748 52 253 1.0 4.0 0.00 0.07 0.05 65 1011.7
20260508144548 53 239 0.0 6.0 0.00 0.07 0.05 66 1011.7
20260508144347 53 253 0.0 6.0 0.00 0.07 0.05 66 1011.7
20260508144147 53 332 0.0 6.0 0.00 0.07 0.05 67 1011.7
20260508143947 53 12 1.0 9.0 0.00 0.07 0.05 68 1011.7
20260508143747 53 341 1.0 9.0 0.00 0.07 0.05 69 1011.7
20260508143546 52 325 1.0 9.0 0.00 0.07 0.05 70 1011.7
20260508143346 52 243 2.0 9.0 0.00 0.07 0.05 69 1011.7
20260508143146 52 200 4.0 9.0 0.00 0.07 0.05 69 1011.7
20260508142945 52 202 2.0 9.0 0.00 0.07 0.05 69 1011.7
20260508142745 52 234 0.0 8.0 0.00 0.07 0.05 68 1011.7
20260508142545 51 205 2.0 8.0 0.00 0.07 0.05 69 1011.7
20260508142344 52 175 3.0 8.0 0.00 0.07 0.05 68 1011.7
20260508142144 52 193 3.0 8.0 0.00 0.07 0.05 69 1011.8
20260508141944 52 233 2.0 8.0 0.00 0.07 0.05 70 1011.7
20260508141744 52 195 2.0 7.0 0.00 0.07 0.05 71 1011.7
20260508141543 52 225 1.0 6.0 0.00 0.07 0.05 72 1011.5
20260508141343 52 225 3.0 6.0 0.00 0.07 0.05 72 1011.6
20260508141143 52 235 2.0 6.0 0.00 0.07 0.05 71 1011.6
20260508140942 52 328 0.0 4.0 0.00 0.07 0.05 71 1011.5
20260508140742 52 348 0.0 3.0 0.00 0.07 0.05 72 1011.5
20260508140542 52 335 1.0 3.0 0.00 0.07 0.05 72 1011.5
20260508140341 51 208 0.0 4.0 0.00 0.07 0.05 72 1011.5
20260508140141 51 207 0.0 4.0 0.00 0.07 0.05 73 1011.5
20260508135941 50 207 0.0 8.0 0.00 0.07 0.05 74 1011.5
20260508135740 50 211 1.0 8.0 0.00 0.07 0.05 73 1011.5
20260508135540 50 231 1.0 8.0 0.00 0.07 0.05 72 1011.6
20260508135340 50 228 2.0 8.0 0.00 0.07 0.05 73 1011.5
20260508135140 50 222 2.0 8.0 0.00 0.07 0.05 72 1011.6
20260508134939 50 231 0.0 6.0 0.00 0.07 0.05 73 1011.5
20260508134739 50 231 0.0 7.0 0.00 0.07 0.05 74 1011.5
20260508134539 50 231 0.0 7.0 0.00 0.07 0.05 74 1011.5
20260508134338 50 231 0.0 7.0 0.00 0.07 0.05 73 1011.5
20260508134138 50 228 1.0 7.0 0.00 0.07 0.05 73 1011.5
20260508133938 50 281 1.0 7.0 0.00 0.07 0.05 72 1011.5
20260508133738 50 328 0.0 3.0 0.00 0.07 0.05 75 1011.5
20260508133537 50 274 0.0 3.0 0.00 0.07 0.05 74 1011.4
20260508133337 50 245 0.0 2.0 0.00 0.07 0.05 74 1011.4
20260508133137 50 248 0.0 3.0 0.00 0.07 0.05 75 1011.5
20260508132936 49 274 1.0 3.0 0.00 0.07 0.05 74 1011.5
20260508132736 50 58 0.0 4.0 0.00 0.07 0.05 75 1011.5
20260508132536 49 19 0.0 4.0 0.00 0.07 0.05 75 1011.6
20260508132335 49 349 1.0 4.0 0.00 0.07 0.05 76 1011.5
20260508132135 48 15 1.0 4.0 0.00 0.07 0.05 76 1011.5
20260508131935 48 356 0.0 3.0 0.00 0.07 0.05 76 1011.6
20260508131734 48 13 0.0 3.0 0.00 0.07 0.05 77 1011.6
20260508131534 48 16 0.0 3.0 0.00 0.07 0.05 77 1011.6
20260508131334 48 11 1.0 3.0 0.00 0.07 0.05 76 1011.6
20260508131134 48 16 1.0 6.0 0.00 0.07 0.05 77 1011.6
20260508130933 48 8 0.0 6.0 0.00 0.07 0.05 79 1011.6
20260508130733 47 356 0.0 6.0 0.00 0.07 0.05 80 1011.7
20260508130533 46 53 1.0 6.0 0.00 0.07 0.05 81 1011.7
20260508130332 46 59 2.0 6.0 0.00 0.07 0.05 79 1011.7
20260508130132 46 42 1.0 6.0 0.00 0.07 0.05 80 1011.6
20260508125932 46 22 0.0 5.0 0.00 0.07 0.05 80 1011.6
20260508125731 46 39 2.0 5.0 0.00 0.07 0.05 80 1011.6
20260508125538 46 27 2.0 5.0 0.00 0.07 0.05 80 1011.7
20260508125337 46 41 2.0 5.0 0.00 0.07 0.05 81 1011.7
20260508125137 46 47 1.0 5.0 0.00 0.07 0.05 81 1011.7
20260508124937 45 18 1.0 5.0 0.00 0.07 0.05 82 1011.7
20260508124737 45 31 1.0 5.0 0.00 0.07 0.05 83 1011.7
20260508124536 45 36 1.0 5.0 0.00 0.07 0.05 83 1011.7
20260508124336 44 29 2.0 5.0 0.00 0.07 0.05 83 1011.7
20260508124136 44 36 3.0 5.0 0.00 0.07 0.05 83 1011.6
20260508123935 44 38 2.0 7.0 0.00 0.07 0.05 83 1011.7
20260508123735 44 27 2.0 7.0 0.00 0.07 0.05 83 1011.7
20260508123535 44 16 2.0 7.0 0.00 0.07 0.05 84 1011.7
20260508123334 44 30 2.0 7.0 0.00 0.07 0.05 84 1011.7
20260508123134 44 24 2.0 7.0 0.00 0.07 0.05 84 1011.7
20260508122934 43 40 3.0 7.0 0.00 0.07 0.05 84 1011.8
20260508122733 43 57 4.0 7.0 0.00 0.07 0.05 85 1011.8
20260508122533 43 47 3.0 6.0 0.00 0.07 0.05 86 1011.8
20260508122333 43 64 2.0 6.0 0.00 0.07 0.05 86 1011.7
20260508122133 43 73 1.0 6.0 0.00 0.07 0.05 86 1011.8
20260508121932 43 4 2.0 7.0 0.00 0.07 0.05 86 1011.8
20260508121732 42 14 1.0 8.0 0.00 0.07 0.05 87 1011.8
20260508121532 42 5 2.0 9.0 0.00 0.07 0.05 87 1011.8
20260508121331 42 25 2.0 9.0 0.00 0.07 0.05 87 1011.7
20260508121131 42 45 3.0 9.0 0.00 0.07 0.05 87 1011.7
20260508120931 42 19 4.0 9.0 0.00 0.07 0.05 87 1011.7
20260508120730 42 36 2.0 9.0 0.00 0.07 0.05 88 1011.8
20260508120530 43 53 1.0 7.0 0.00 0.07 0.05 88 1011.7
20260508120330 43 57 2.0 7.0 0.00 0.07 0.05 89 1011.7
20260508120130 43 316 1.0 7.0 0.00 0.07 0.05 90 1011.7
20260508115929 42 320 1.0 8.0 0.00 0.07 0.05 90 1011.7
20260508115729 42 11 1.0 8.0 0.00 0.07 0.05 90 1011.6
20260508115529 42 33 2.0 8.0 0.00 0.07 0.05 90 1011.5
20260508115328 42 350 2.0 8.0 0.00 0.07 0.05 90 1011.6
20260508115128 43 319 2.0 8.0 0.00 0.07 0.05 90 1011.5
20260508114928 43 109 2.0 6.0 0.00 0.07 0.05 91 1011.4
20260508114727 42 72 1.0 6.0 0.00 0.07 0.05 92 1011.5
20260508114527 42 17 0.0 5.0 0.00 0.07 0.05 92 1011.4
20260508114327 42 103 0.0 5.0 0.00 0.07 0.05 92 1011.4
20260508114127 42 98 0.0 5.0 0.00 0.07 0.05 92 1011.4
20260508113926 42 90 0.0 5.0 0.00 0.07 0.05 92 1011.3
20260508113726 42 60 0.0 2.0 0.00 0.07 0.05 92 1011.3
20260508113526 42 60 0.0 2.0 0.00 0.07 0.05 92 1011.2
20260508113325 42 60 0.0 2.0 0.00 0.07 0.05 92 1011.2
20260508113125 42 58 0.0 2.0 0.00 0.07 0.05 92 1011.2
20260508112925 42 58 0.0 2.0 0.00 0.07 0.05 92 1011.2
20260508112724 41 286 0.0 2.0 0.00 0.07 0.05 92 1011.2
20260508112524 41 275 0.0 2.0 0.01 0.07 0.05 92 1011.2
20260508112324 41 270 0.0 2.0 0.01 0.07 0.05 92 1011.1
20260508112124 41 241 0.0 2.0 0.01 0.07 0.05 92 1011.0
20260508111923 41 221 0.0 2.0 0.01 0.07 0.05 92 1011.1
20260508111723 41 235 0.0 2.0 0.01 0.07 0.05 92 1011.0
20260508111523 41 232 0.0 2.0 0.01 0.07 0.05 92 1011.0
20260508111322 41 224 0.0 2.0 0.01 0.07 0.05 92 1011.0
20260508111122 41 224 0.0 2.0 0.01 0.07 0.05 92 1011.0
20260508110922 41 224 0.0 2.0 0.01 0.07 0.05 92 1011.0
20260508110721 41 223 0.0 3.0 0.01 0.07 0.05 92 1011.0
20260508110521 41 204 0.0 3.0 0.01 0.07 0.05 92 1010.9
20260508110321 41 127 0.0 3.0 0.02 0.07 0.05 92 1010.9
20260508110121 41 127 0.0 4.0 0.02 0.07 0.05 92 1010.9
20260508105920 41 189 1.0 4.0 0.02 0.07 0.05 92 1010.9
20260508105720 41 219 1.0 4.0 0.02 0.07 0.05 92 1010.9
20260508105520 40 183 1.0 4.0 0.03 0.07 0.05 92 1010.9
20260508105319 40 187 1.0 4.0 0.03 0.07 0.05 92 1010.9